This demonstration page uses our WeatherBlox Daily Observations layout. Learn more.

Hourly Observations for September 19, 2016

Temp ( °F °C ) Dew Point ( °F °C ) Humidity (%) Winds ( mph kmh ) Pressure ( in mb ) Visibility ( mi km ) Precip ( " mm )
12:15 am 00:15 Clear 68 20.1 60 15.5 75 75 SSW 9 15 29.83 1010 10 16.09344 0 0
12:35 am 00:35 Clear 67 19.7 60 15.6 77 77 SSW 9 15 29.83 1010 10 16.09344 0 0
12:55 am 00:55 Clear 67 19.3 60 15.7 80 80 SSW 8 13 29.83 1010 10 16.09344 0 0
1:15 am 01:15 Clear 66 19 60 15.8 82 82 SSW 7 11 29.83 1010 10 16.09344 0 0
1:35 am 01:35 Clear 66 18.7 60 15.7 83 83 SSW 7 11 29.83 1010 10 16.09344 0 0
1:55 am 01:55 Clear 65 18.2 60 15.5 84 84 SSW 9 15 29.85 1011 10 16.09344 0 0
2:15 am 02:15 Clear 65 18.1 59 15.2 83 83 SSW 8 13 29.85 1011 10 16.09344 0 0
2:35 am 02:35 Clear 64 18 59 14.9 82 82 SSW 9 15 29.85 1011 10 16.09344 0 0
2:55 am 02:55 Clear 64 18 58 14.4 80 80 S 12 19 29.85 1011 10 16.09344 0 0
3:15 am 03:15 Clear 64 17.7 57 13.7 78 78 SSW 8 13 29.85 1011 10 16.09344 0 0
3:35 am 03:35 Clear 64 17.5 56 13.2 76 76 SSW 8 13 29.85 1011 10 16.09344 0 0
3:55 am 03:55 Clear 63 17.1 55 12.7 75 75 SSW 10 17 29.85 1011 10 16.09344 0 0
4:15 am 04:15 Clear 62 16.8 54 12.2 74 74 SSW 9 15 29.85 1011 10 16.09344 0 0
4:35 am 04:35 Clear 62 16.6 53 11.5 72 72 SSW 10 17 29.85 1011 10 16.09344 0 0
4:55 am 04:55 Clear 62 16.6 52 10.9 69 69 SSW 5 7 29.85 1011 10 16.09344 0 0
5:15 am 05:15 Clear 61 15.9 51 10.6 71 71 SW 5 7 29.85 1011 10 16.09344 0 0
5:35 am 05:35 Clear 62 16.4 50 10 66 66 SSW 3 6 29.85 1011 10 16.09344 0 0
5:55 am 05:55 Clear 61 16 49 9.7 66 66 SW 5 7 29.88 1012 10 16.09344 0 0
6:15 am 06:15 Clear 61 16.1 49 9.2 64 64 WSW 7 11 29.88 1012 10 16.09344 0 0
6:35 am 06:35 Clear 61 16 48 9 63 63 WSW 7 11 29.88 1012 10 16.09344 0 0
6:55 am 06:55 Clear 61 16.1 48 8.9 63 63 W 10 17 29.88 1012 10 16.09344 0 0
7:15 am 07:15 Clear 62 16.5 47 8.6 60 60 WNW 6 9 29.88 1012 10 16.09344 0 0
7:35 am 07:35 Sunny 61 15.9 47 8.6 62 62 W 10 17 29.91 1013 10 16.09344 0 0
7:55 am 07:55 Sunny 65 18.2 46 7.7 51 51 WNW 7 11 29.91 1013 10 16.09344 0 0
8:15 am 08:15 Sunny 62 16.8 48 8.7 59 59 WNW 6 9 29.94 1014 10 16.09344 0 0
8:35 am 08:35 Sunny 65 18.2 48 8.7 54 54 WNW 7 11 29.94 1014 10 16.09344 0 0
8:55 am 08:55 Sunny 67 19.7 47 8.3 48 48 NW 10 17 29.91 1013 10 16.09344 0 0
9:15 am 09:15 Sunny 67 19.7 47 8.2 48 48 NW 12 19 29.97 1015 10 16.09344 0 0
9:35 am 09:35 Sunny 68 20 48 8.8 49 49 NNW 10 17 29.94 1014 10 16.09344 0 0
9:55 am 09:55 Sunny 68 19.8 50 9.8 53 53 N 14 22 30 1016 10 16.09344 0 0
10:15 am 10:15 Sunny 69 20.4 51 10.5 53 53 N 14 22 29.97 1015 10 16.09344 0 0
10:35 am 10:35 Sunny 70 20.9 52 11.1 54 54 N 15 24 29.97 1015 10 16.09344 0 0
10:55 am 10:55 Sunny 71 21.9 52 11.3 51 51 N 16 26 29.97 1015 10 16.09344 0 0
11:15 am 11:15 Sunny 73 22.6 52 11.3 49 49 NNE 14 22 29.97 1015 10 16.09344 0 0
11:35 am 11:35 Sunny 74 23.4 52 11 46 46 NNE 15 24 29.97 1015 10 16.09344 0 0
11:55 am 11:55 Sunny 75 23.9 51 10.6 43 43 NNE 14 22 29.94 1014 10 16.09344 0 0
12:15 pm 12:15 Sunny 75 24.1 50 10 41 41 NNE 14 22 29.94 1014 10 16.09344 0 0
12:35 pm 12:35 Sunny 76 24.7 51 10.3 40 40 NNE 14 22 29.94 1014 10 16.09344 0 0
12:55 pm 12:55 Sunny 78 25.3 51 10.3 39 39 NNE 12 19 29.94 1014 10 16.09344 0 0
1:15 pm 13:15 Sunny 78 25.6 49 9.6 36 36 NNE 12 19 29.94 1014 10 16.09344 0 0
1:35 pm 13:35 Sunny 78 25.7 50 9.9 37 37 NNE 9 15 29.94 1014 10 16.09344 0 0
1:55 pm 13:55 Sunny 79 26.1 50 9.8 36 36 NNE 9 15 29.94 1014 10 16.09344 0 0
2:15 pm 14:15 Sunny 80 26.5 50 10.2 36 36 N 9 15 29.94 1014 10 16.09344 0 0
2:35 pm 14:35 Sunny 80 26.7 50 9.8 35 35 NNE 9 15 29.94 1014 10 16.09344 0 0
2:55 pm 14:55 Sunny 81 27.1 50 10.1 34 34 N 8 13 29.94 1014 10 16.09344 0 0
3:15 pm 15:15 Sunny 82 27.5 50 10.2 34 34 ENE 8 13 29.91 1013 10 16.09344 0 0
3:35 pm 15:35 Sunny 82 27.6 50 10 33 33 NNE 9 15 29.91 1013 10 16.09344 0 0
3:55 pm 15:55 Sunny 82 27.6 50 9.9 33 33 NNE 7 11 29.91 1013 10 16.09344 0 0
4:15 pm 16:15 Sunny 82 27.8 49 9.7 32 32 NNE 8 13 29.91 1013 10 16.09344 0 0
4:35 pm 16:35 Sunny 82 28 50 10.2 33 33 E 8 13 29.91 1013 10 16.09344 0 0
4:55 pm 16:55 Sunny 82 28 51 10.4 33 33 ENE 8 13 29.91 1013 10 16.09344 0 0
5:15 pm 17:15 Sunny 82 27.8 51 10.7 34 34 E 8 13 29.91 1013 7 11.265408 0 0
5:35 pm 17:35 Sunny 82 27.7 51 10.6 34 34 E 7 11 29.91 1013 10 16.09344 0 0
5:55 pm 17:55 Sunny 82 27.5 52 11.1 36 36 E 8 13 29.91 1013 10 16.09344 0 0
6:15 pm 18:15 Sunny 81 27.1 53 11.4 38 38 E 6 9 29.94 1014 10 16.09344 0 0
6:35 pm 18:35 Sunny 80 26.5 53 11.9 40 40 ENE 6 9 29.94 1014 10 16.09344 0 0
6:55 pm 18:55 Sunny 78 25.3 55 12.9 46 46 ENE 6 9 29.94 1014 10 16.09344 0 0
7:15 pm 19:15 Sunny 75 23.7 57 13.9 54 54 ENE 6 9 29.94 1014 10 16.09344 0 0
7:35 pm 19:35 Sunny 71 21.7 57 13.8 61 61 ENE 6 9 29.97 1015 10 16.09344 0 0
7:55 pm 19:55 Clear 68 20.1 56 13.6 66 66 E 7 11 29.97 1015 10 16.09344 0 0
8:15 pm 20:15 Clear 68 20.1 56 13.1 64 64 E 6 9 29.97 1015 10 16.09344 0 0
8:35 pm 20:35 Clear 67 19.4 55 12.9 66 66 E 7 11 30.03 1017 10 16.09344 0 0
8:55 pm 20:55 Clear 65 18.5 55 12.6 69 69 E 6 9 30.03 1017 10 16.09344 0 0
9:15 pm 21:15 Clear 63 17.2 55 12.6 75 75 E 7 11 30.03 1017 10 16.09344 0 0
9:35 pm 21:35 Clear 63 17.2 55 12.8 76 76 E 7 11 30.03 1017 10 16.09344 0 0
9:55 pm 21:55 Clear 63 17 55 13 77 77 E 6 9 30.03 1017 10 16.09344 0 0
10:15 pm 22:15 Clear 62 16.4 55 12.6 78 78 ESE 6 9 30.06 1018 10 16.09344 0 0
10:35 pm 22:35 Clear 61 16.2 56 13.2 83 83 E 7 11 30.06 1018 10 16.09344 0 0
10:55 pm 22:55 Clear 63 17.1 56 13.3 78 78 ESE 9 15 30.03 1017 10 16.09344 0 0
11:15 pm 23:15 Clear 63 17 55 13 77 77 E 7 11 30.03 1017 10 16.09344 0 0
11:35 pm 23:35 Clear 62 16.5 55 12.9 79 79 E 7 11 30.06 1018 10 16.09344 0 0
11:55 pm 23:55 Clear 61 16 55 12.9 82 82 E 6 9 30.06 1018 10 16.09344 0 0

Powered by AerisWeather